Back to catalog

BRITE-A TUGSAT-1

AliveScienceSSO
NORAD 39091·PAYLOAD·🇮🇱 Israel

Launched Feb 25, 2013 from Satish Dhawan Space Centre

Loading…

Next Passes (next 24 hours)

TLE

FreshSource: Space-Track

Epoch: Sep 13, 2026, 22:38 UTC

1 39091U 13009F   26256.94360078  .00000103  00000-0  49665-4 0  9991
2 39091  98.4047  74.2151 0009769 341.8484  18.2353 14.36571244709790

Track BRITE-A TUGSAT-1 in real time with AllMySat

Download on the App Store